Wind_Speed
5 5 5 5 5 5 5 4 5 5 5 6 6 6 7 7 8 8 8 8 8 9 10 9 9 9 8 8 9 9 10 10 11 11 12 13 13 13
6 6 5 5 4 5 5 5 5 5 5 5 6 7 7 7 8 8 8 8 9 10 10 10 10 10 10 10 10 10 11 12 13 13 13 14 14 14
6 6 5 5 5 5 5 5 5 5 5 5 6 6 7 7 8 8 9 9 10 10 11 10 10 11 11 12 12 12 13 13 14 14 14 15 15 15
7 6 6 6 6 5 5 6 5 5 5 5 6 6 7 7 8 9 9 10 11 10 11 11 11 12 12 12 13 14 15 15 15 15 15 15 15 16
7 7 6 6 6 6 6 6 5 5 5 6 7 7 7 8 8 9 10 11 11 11 12 12 12 13 13 13 14 15 16 16 16 17 17 17 17 18
8 8 8 7 7 6 6 6 6 6 7 7 7 7 8 9 10 10 11 11 12 12 13 13 14 14 14 14 15 16 17 17 18 18 18 19 20 21
9 9 9 8 8 8 7 7 7 8 8 8 8 9 10 11 11 11 12 12 12 13 14 14 14 15 16 16 17 18 18 19 19 20 20 20 21 23
10 10 10 9 9 9 9 8 9 9 9 9 10 11 12 12 12 12 12 13 13 14 15 15 16 17 17 18 18 19 20 20 21 22 22 23 24 25
11 10 10 10 9 10 10 10 10 11 11 11 12 12 13 13 13 13 14 14 15 16 16 17 18 17 18 19 20 21 21 22 23 23 24 25 26 27
12 11 11 10 10 10 10 11 11 12 12 12 12 13 13 14 14 15 15 16 16 17 17 18 18 18 19 21 22 23 23 24 25 26 26 27 28 29
12 12 11 11 11 12 12 12 12 12 13 13 14 14 15 15 16 16 17 17 17 18 18 18 19 20 21 22 23 24 25 26 27 28 28 29 30 31
14 14 13 13 13 12 13 13 14 14 14 14 15 15 15 16 16 17 18 18 18 19 19 19 20 21 22 24 25 25 26 27 28 29 30 31 32 32
15 15 15 15 15 15 15 15 15 16 16 16 17 17 17 17 18 18 19 20 20 20 21 22 22 23 24 25 26 27 28 29 30 31 31 32 33 33
16 16 17 17 17 17 17 17 17 18 18 18 18 18 19 19 20 20 20 21 21 21 22 23 24 24 26 26 27 28 29 30 30 31 32 32 33 34
17 17 17 18 18 18 18 19 19 19 19 20 19 20 20 20 21 21 21 21 22 22 23 24 25 26 27 27 28 29 30 31 32 32 32 33 34 35
19 19 19 19 19 20 20 19 19 20 20 20 20 21 22 21 21 21 22 22 23 23 24 25 27 28 28 29 30 31 31 32 32 33 33 34 35 35
21 21 21 21 21 21 21 21 21 21 21 21 21 22 21 21 22 22 22 23 23 25 26 27 28 30 30 31 31 32 32 32 33 34 35 35 36 37
21 21 22 22 23 23 23 23 23 23 23 23 23 22 22 22 23 23 23 24 25 26 27 28 29 30 31 32 32 32 32 33 34 35 36 36 37 37
21 22 23 23 24 25 25 25 25 24 24 24 25 25 25 25 25 25 26 26 27 28 28 29 30 31 32 32 32 33 33 35 36 37 37 38 38 38
21 21 22 23 24 25 25 25 25 25 25 25 25 26 26 26 27 27 28 29 29 30 30 31 32 32 32 32 33 34 35 36 37 38 38 38 39 39
22 22 23 24 24 25 25 26 26 26 25 25 26 27 27 27 28 29 30 31 31 31 31 32 32 33 33 34 34 35 36 37 37 38 38 38 39 40
22 22 23 24 25 25 25 26 26 26 26 27 27 27 28 29 29 30 31 31 31 31 31 32 33 33 34 35 35 36 36 37 37 37 38 39 40 41
23 23 24 24 25 25 25 26 26 27 27 28 28 28 29 29 30 31 31 31 31 31 32 33 33 34 35 35 36 36 37 37 38 38 39 40 41 42
Wind_Direction
242 242 246 248 249 254 262 270 277 283 289 295 302 307 310 311 315 317 320 322 327 329 327 328 331 333 334 330 326 323 321 317 314 312 311 310 310 311
246 246 244 247 254 256 261 269 276 278 284 288 295 300 307 312 316 315 318 319 323 327 327 327 326 329 332 328 319 318 317 314 313 314 313 312 312 309
244 240 242 248 257 260 262 267 274 279 286 291 297 303 309 313 319 321 317 316 317 320 320 320 321 322 324 324 323 322 322 319 319 318 317 314 311 309
240 238 240 246 253 260 263 266 269 273 283 291 298 305 312 316 318 321 320 319 318 319 318 315 315 316 317 317 317 318 320 319 319 320 319 318 317 315
238 239 243 248 254 261 264 267 266 272 283 289 292 299 306 310 315 319 321 322 322 321 322 321 321 320 316 316 317 319 321 321 321 320 317 316 316 315
238 242 246 250 255 262 266 266 269 275 282 288 294 299 305 308 312 316 320 320 317 318 320 321 320 319 318 317 318 318 318 319 319 319 317 315 315 316
239 246 249 253 257 259 262 267 272 277 283 287 293 300 305 307 309 310 313 313 313 314 315 317 317 314 313 315 316 316 317 317 317 317 315 314 315 315
239 248 250 253 255 258 263 266 272 277 281 286 293 299 302 305 306 309 311 311 310 309 310 311 312 313 313 314 315 316 317 317 317 315 313 313 313 313
241 249 254 256 258 259 263 265 271 276 281 286 293 297 299 302 305 309 310 310 309 308 308 309 310 311 312 312 313 313 315 316 316 315 313 312 312 312
244 250 255 255 261 265 267 270 273 277 282 288 294 298 299 299 302 306 308 308 307 307 307 308 309 309 310 311 311 311 312 314 314 314 313 312 312 313
246 250 254 258 262 265 268 270 272 275 280 286 291 295 296 298 300 303 306 307 308 308 307 307 307 308 310 311 311 311 310 311 312 313 313 313 313 313
248 251 255 259 261 266 270 271 273 275 280 285 288 292 296 298 301 303 304 304 306 307 308 307 308 308 309 311 311 310 310 311 312 313 313 314 314 314
251 253 256 260 263 267 270 273 276 276 280 284 286 289 292 296 299 301 303 303 303 304 305 305 308 309 309 310 310 310 311 311 311 312 313 314 314 314
254 256 258 261 264 267 270 273 277 280 280 281 283 286 290 292 295 298 300 302 303 303 303 305 307 309 310 310 310 311 311 311 311 312 313 314 315 315
257 258 259 262 266 269 271 273 276 279 278 278 281 284 287 290 294 297 299 300 302 303 303 304 305 307 310 311 312 312 312 312 312 313 313 315 315 316
259 260 260 261 264 267 270 273 275 278 279 280 282 285 287 290 292 295 296 297 300 301 302 303 305 307 308 310 311 311 311 312 313 313 314 315 315 316
259 259 261 263 265 268 271 274 276 279 281 282 283 286 288 290 291 294 295 296 298 300 302 303 305 306 307 308 309 310 311 311 312 313 313 314 314 315
263 262 263 265 267 269 271 274 276 278 280 281 283 285 288 290 292 293 294 295 297 300 301 303 305 306 308 309 309 309 309 310 312 313 314 314 314 314
267 266 265 266 268 269 271 274 276 277 279 282 284 285 286 289 290 292 293 295 297 299 300 302 304 305 306 307 308 309 309 310 310 311 312 313 314 314
267 269 270 270 270 270 271 272 274 276 278 281 283 284 286 287 289 291 292 294 295 297 299 301 303 304 304 305 307 308 309 309 310 311 311 311 312 313
267 268 270 271 271 271 271 273 274 275 277 279 281 283 285 287 288 289 291 292 294 296 297 300 301 303 304 304 306 308 309 309 310 310 311 311 312 313
267 268 269 271 273 273 272 273 274 274 276 279 281 283 285 286 288 290 291 292 293 294 296 299 300 301 303 304 306 307 308 309 310 311 311 311 312 312
269 270 271 274 275 276 276 276 276 277 279 281 282 283 285 286 288 291 292 292 293 294 296 298 299 299 301 304 306 307 308 309 310 311 312 312 312 313
Height
5838 5838 5839 5839 5839 5839 5839 5839 5839 5839 5838 5837 5837 5836 5835 5834 5833 5832 5830 5829 5827 5825 5823 5821 5819 5817 5815 5814 5812 5810 5808 5807 5805 5803 5801 5799 5797 5795
5836 5837 5837 5838 5838 5838 5838 5838 5838 5837 5837 5836 5835 5835 5834 5832 5831 5830 5829 5827 5825 5823 5822 5820 5818 5816 5814 5812 5810 5808 5806 5804 5802 5800 5799 5796 5794 5792
5835 5835 5836 5836 5836 5836 5836 5836 5836 5836 5835 5835 5834 5833 5832 5831 5829 5828 5827 5825 5824 5822 5820 5818 5816 5814 5812 5810 5808 5806 5804 5802 5800 5798 5795 5793 5791 5789
5833 5834 5834 5834 5835 5835 5835 5834 5834 5834 5834 5833 5832 5832 5830 5829 5828 5827 5825 5823 5822 5820 5818 5816 5814 5812 5810 5808 5806 5804 5801 5799 5797 5794 5792 5790 5787 5785
5831 5832 5832 5833 5833 5833 5833 5833 5833 5832 5832 5832 5831 5830 5829 5828 5827 5825 5823 5821 5820 5818 5816 5814 5812 5810 5807 5806 5803 5801 5799 5796 5793 5791 5788 5786 5783 5781
5830 5830 5831 5831 5831 5831 5831 5831 5831 5831 5830 5830 5829 5828 5827 5826 5825 5823 5821 5819 5817 5816 5813 5811 5809 5807 5805 5803 5800 5798 5795 5793 5790 5787 5784 5781 5779 5776
5827 5828 5829 5829 5829 5829 5830 5829 5829 5829 5828 5827 5827 5826 5825 5823 5822 5821 5819 5817 5815 5813 5811 5809 5806 5804 5802 5799 5796 5794 5791 5789 5786 5782 5779 5777 5774 5771
5825 5826 5826 5827 5827 5827 5827 5827 5827 5826 5826 5825 5824 5823 5822 5821 5819 5818 5816 5814 5812 5810 5808 5805 5803 5800 5798 5795 5793 5790 5787 5784 5781 5778 5775 5771 5768 5765
5822 5823 5823 5824 5824 5824 5824 5824 5824 5823 5823 5822 5821 5820 5819 5817 5816 5814 5813 5811 5809 5807 5804 5802 5799 5797 5794 5791 5789 5786 5783 5780 5776 5773 5769 5766 5762 5758
5820 5820 5821 5821 5821 5821 5821 5821 5821 5820 5820 5819 5818 5817 5815 5814 5812 5811 5809 5807 5805 5803 5800 5798 5795 5792 5790 5787 5784 5781 5778 5774 5771 5767 5763 5760 5756 5752
5817 5817 5818 5818 5818 5818 5818 5818 5817 5817 5816 5815 5814 5813 5812 5810 5808 5807 5805 5803 5801 5798 5796 5793 5791 5788 5785 5782 5779 5775 5772 5769 5765 5761 5757 5753 5749 5744
5813 5814 5814 5814 5814 5814 5814 5814 5813 5813 5812 5811 5810 5809 5807 5806 5804 5802 5800 5798 5796 5793 5791 5788 5786 5783 5780 5777 5773 5770 5766 5762 5758 5754 5750 5746 5741 5736
5810 5810 5810 5810 5810 5810 5810 5809 5809 5808 5807 5806 5805 5804 5803 5801 5799 5798 5796 5793 5791 5788 5786 5783 5780 5777 5774 5771 5767 5764 5760 5756 5752 5747 5743 5738 5733 5728
5805 5805 5806 5806 5805 5805 5805 5805 5804 5803 5802 5801 5800 5799 5798 5796 5794 5792 5790 5788 5786 5783 5780 5777 5775 5772 5768 5765 5761 5757 5753 5749 5744 5740 5735 5730 5725 5720
5800 5800 5801 5800 5800 5800 5800 5799 5799 5798 5797 5796 5795 5794 5792 5791 5789 5787 5785 5783 5780 5777 5775 5772 5769 5765 5762 5758 5755 5750 5746 5742 5737 5732 5728 5723 5718 5712
5795 5795 5795 5795 5795 5795 5794 5794 5793 5792 5791 5790 5789 5788 5786 5785 5783 5781 5779 5777 5774 5771 5768 5765 5762 5759 5755 5751 5748 5743 5739 5734 5729 5725 5720 5715 5710 5704
5789 5789 5789 5789 5789 5789 5788 5788 5787 5786 5785 5784 5783 5781 5780 5778 5777 5775 5773 5770 5768 5765 5762 5759 5755 5752 5748 5744 5740 5736 5731 5726 5722 5717 5712 5707 5702 5696
5783 5783 5783 5783 5783 5782 5782 5781 5781 5780 5779 5778 5776 5775 5773 5772 5770 5768 5766 5763 5761 5758 5755 5751 5748 5744 5740 5736 5732 5728 5723 5719 5714 5709 5704 5699 5694 5688
5776 5776 5776 5776 5776 5775 5775 5774 5774 5773 5772 5770 5769 5768 5766 5765 5763 5761 5759 5756 5753 5750 5747 5743 5739 5735 5732 5728 5724 5719 5715 5710 5706 5701 5695 5690 5685 5679
5769 5769 5769 5769 5768 5768 5767 5767 5766 5765 5764 5763 5762 5760 5758 5757 5755 5753 5751 5748 5745 5742 5739 5735 5731 5727 5724 5720 5716 5711 5706 5701 5697 5692 5687 5681 5676 5670
5762 5762 5762 5761 5761 5760 5760 5759 5758 5758 5757 5755 5754 5752 5750 5749 5747 5745 5742 5740 5736 5733 5730 5727 5723 5719 5715 5711 5707 5702 5698 5693 5688 5683 5678 5672 5666 5661
5755 5755 5754 5754 5753 5752 5752 5751 5750 5749 5748 5747 5746 5744 5742 5740 5738 5736 5733 5730 5727 5724 5721 5718 5714 5710 5706 5702 5698 5693 5689 5684 5678 5673 5668 5663 5657 5651
5748 5747 5747 5746 5745 5744 5744 5743 5742 5741 5740 5738 5737 5735 5733 5731 5729 5726 5724 5721 5717 5715 5711 5708 5704 5700 5696 5692 5688 5684 5679 5674 5669 5664 5658 5652 5647 5641